2014-11-25 00:03:22 r, 17.93m,0000000006Hz,0000077732c,0000000.169s, 003.5C,00002195
2014-11-25 00:13:22 r, 17.94m,0000000006Hz,0000077892c,0000000.169s, 003.2C,00002195
2014-11-25 00:23:22 r, 17.94m,0000000005Hz,0000078028c,0000000.169s, 003.5C,00002195
2014-11-25 00:33:22 r, 17.94m,0000000006Hz,0000078560c,0000000.170s, 003.5C,00002195
2014-11-25 00:43:22 r, 17.94m,0000000006Hz,0000078435c,0000000.170s, 003.5C,00002195
2014-11-25 00:53:22 r, 17.93m,0000000006Hz,0000077657c,0000000.169s, 003.5C,00002195
2014-11-25 01:03:22 r, 17.94m,0000000006Hz,0000078507c,0000000.170s, 003.5C,00002195
2014-11-25 01:13:22 r, 17.94m,0000000005Hz,0000077974c,0000000.169s, 003.8C,00002195
2014-11-25 01:23:22 r, 17.93m,0000000006Hz,0000077624c,0000000.168s, 003.8C,00002195
2014-11-25 01:33:22 r, 17.57m,0000000009Hz,0000055699c,0000000.121s, 003.8C,00002195
2014-11-25 01:43:22 r, 17.52m,0000000009Hz,0000053113c,0000000.115s, 003.8C,00002195
2014-11-25 01:53:22 r, 17.92m,0000000006Hz,0000077096c,0000000.167s, 003.8C,00002195
2014-11-25 02:03:22 r, 17.93m,0000000006Hz,0000077692c,0000000.169s, 003.5C,00002195
2014-11-25 02:13:22 r, 17.92m,0000000006Hz,0000077037c,0000000.167s, 003.2C,00002195
2014-11-25 02:23:22 r, 17.94m,0000000006Hz,0000077677c,0000000.169s, 002.9C,00002195
2014-11-25 02:33:22 r, 17.79m,0000000007Hz,0000067704c,0000000.147s, 002.9C,00002195
2014-11-25 02:43:22 r, 17.91m,0000000006Hz,0000076789c,0000000.167s, 002.9C,00002195
2014-11-25 02:53:22 r, 16.61m,0000000020Hz,0000023013c,0000000.050s, 002.9C,00002195
2014-11-25 03:03:22 r, 17.94m,0000000006Hz,0000078648c,0000000.171s, 003.2C,00002195
2014-11-25 03:13:22 r, 17.96m,0000000006Hz,0000079458c,0000000.172s, 003.2C,00002195
2014-11-25 03:23:22 r, 17.95m,0000000006Hz,0000079002c,0000000.171s, 003.2C,00002195
2014-11-25 03:33:22 r, 17.76m,0000000006Hz,0000066178c,0000000.144s, 003.2C,00002195
2014-11-25 03:43:22 r, 16.02m,0000000034Hz,0000013365c,0000000.029s, 003.5C,00002195
2014-11-25 03:53:22 r, 16.23m,0000000028Hz,0000016217c,0000000.035s, 003.5C,00002195
2014-11-25 04:03:22 r, 15.26m,0000000069Hz,0000006635c,0000000.014s, 003.8C,00002195
2014-11-25 04:13:22 r, 15.13m,0000000079Hz,0000005872c,0000000.013s, 003.8C,00002195
2014-11-25 04:23:22 r, 15.27m,0000000069Hz,0000006709c,0000000.015s, 003.8C,00002195
2014-11-25 04:33:22 r, 15.17m,0000000076Hz,0000006055c,0000000.013s, 004.1C,00002195
2014-11-25 04:43:22 r, 15.58m,0000000053Hz,0000008930c,0000000.019s, 004.5C,00002195
2014-11-25 04:53:22 r, 15.15m,0000000077Hz,0000005957c,0000000.013s, 004.8C,00002195
2014-11-25 05:03:22 r, 15.31m,0000000066Hz,0000006947c,0000000.015s, 005.1C,00002195
2014-11-25 05:13:22 r, 15.50m,0000000056Hz,0000008192c,0000000.018s, 005.4C,00002195
2014-11-25 05:23:22 r, 15.37m,0000000063Hz,0000007319c,0000000.016s, 005.8C,00002195
2014-11-25 05:33:22 r, 15.28m,0000000068Hz,0000006766c,0000000.015s, 005.8C,00002195
2014-11-25 05:43:22 r, 15.25m,0000000071Hz,0000006543c,0000000.014s, 005.8C,00002195
2014-11-25 05:53:22 r, 15.54m,0000000053Hz,0000008612c,0000000.019s, 006.1C,00002195
2014-11-25 06:03:22 r, 15.14m,0000000078Hz,0000005902c,0000000.013s, 006.1C,00002195
2014-11-25 06:13:22 r, 15.15m,0000000078Hz,0000005964c,0000000.013s, 006.4C,00002195
2014-11-25 06:23:22 r, 15.51m,0000000054Hz,0000008383c,0000000.018s, 006.7C,00002195
2014-11-25 06:33:22 r, 15.72m,0000000046Hz,0000010145c,0000000.022s, 006.7C,00002195
2014-11-25 06:43:22 r, 15.50m,0000000054Hz,0000008297c,0000000.018s, 006.7C,00002195
2014-11-25 06:53:22 r, 15.43m,0000000059Hz,0000007733c,0000000.017s, 006.7C,00002195
2014-11-25 07:03:22 r, 14.86m,0000000100Hz,0000004587c,0000000.010s, 006.7C,00002195
2014-11-25 07:13:22 r, 14.03m,0000000216Hz,0000000000c,0000000.000s, 007.0C,00002195
2014-11-25 07:23:22 r, 12.39m,0000000984Hz,0000000000c,0000000.000s, 007.0C,00002195
2014-11-25 07:33:22 r, 10.54m,0000005420Hz,0000000000c,0000000.000s, 007.0C,00002195
2014-11-25 07:43:22 r, 08.77m,0000027621Hz,0000000000c,0000000.000s, 007.0C,00002195
2014-11-25 07:53:22 r, 07.62m,0000080245Hz,0000000000c,0000000.000s, 007.0C,00002195
2014-11-25 08:03:22 r, 06.87m,0000159017Hz,0000000000c,0000000.000s, 007.0C,00002195
2014-11-25 08:13:22 r, 06.13m,0000313739Hz,0000000000c,0000000.000s, 007.4C,00002195
2014-11-25 08:23:22 r, 00.00m,0000519913Hz,0000000000c,0000000.000s, 007.4C,00002195
2014-11-25 08:33:22 r, 00.00m,0000561693Hz,0000000000c,0000000.000s, 007.4C,00002195
2014-11-25 08:43:22 r, 00.00m,0000561661Hz,0000000000c,0000000.000s, 007.7C,00002195
2014-11-25 08:53:22 r, 00.00m,0000561704Hz,0000000000c,0000000.000s, 007.7C,00002195
2014-11-25 09:03:22 r, 00.00m,0000561833Hz,0000000000c,0000000.000s, 008.0C,00002195
2014-11-25 09:13:22 r, 00.00m,0000561898Hz,0000000000c,0000000.000s, 008.0C,00002195
2014-11-25 09:23:22 r, 00.00m,0000561806Hz,0000000000c,0000000.000s, 008.7C,00002195
2014-11-25 09:33:22 r, 00.00m,0000561886Hz,0000000000c,0000000.000s, 009.0C,00002195
2014-11-25 09:43:22 r, 00.00m,0000561886Hz,0000000000c,0000000.000s, 009.0C,00002195
2014-11-25 09:53:22 r, 00.00m,0000561762Hz,0000000000c,0000000.000s, 008.7C,00002195
2014-11-25 10:03:22 r, 00.00m,0000561811Hz,0000000000c,0000000.000s, 008.7C,00002195
2014-11-25 10:13:22 r, 00.00m,0000561891Hz,0000000000c,0000000.000s, 009.0C,00002195
2014-11-25 10:23:22 r, 00.00m,0000561948Hz,0000000000c,0000000.000s, 009.3C,00002195
2014-11-25 10:33:22 r, 00.00m,0000562074Hz,0000000000c,0000000.000s, 009.6C,00002195
2014-11-25 10:43:22 r, 00.00m,0000562058Hz,0000000000c,0000000.000s, 009.9C,00002195
2014-11-25 10:53:22 r, 00.00m,0000562154Hz,0000000000c,0000000.000s, 010.3C,00002195
2014-11-25 11:03:22 r, 00.00m,0000562131Hz,0000000000c,0000000.000s, 010.6C,00002195
2014-11-25 11:13:22 r, 00.00m,0000562253Hz,0000000000c,0000000.000s, 010.6C,00002195
2014-11-25 11:23:22 r, 00.00m,0000562361Hz,0000000000c,0000000.000s, 011.2C,00002195
2014-11-25 11:33:22 r, 00.00m,0000562411Hz,0000000000c,0000000.000s, 011.6C,00002195
2014-11-25 11:43:22 r, 00.00m,0000562378Hz,0000000000c,0000000.000s, 011.9C,00002195
2014-11-25 11:53:22 r, 00.00m,0000562412Hz,0000000000c,0000000.000s, 012.2C,00002195
2014-11-25 12:03:22 r, 00.00m,0000562510Hz,0000000000c,0000000.000s, 012.2C,00002195
2014-11-25 12:13:22 r, 00.00m,0000562415Hz,0000000000c,0000000.000s, 012.2C,00002195
2014-11-25 12:23:22 r, 00.00m,0000562487Hz,0000000000c,0000000.000s, 012.2C,00002195
2014-11-25 12:33:22 r, 00.00m,0000562506Hz,0000000000c,0000000.000s, 012.5C,00002195
2014-11-25 12:43:22 r, 00.00m,0000562521Hz,0000000000c,0000000.000s, 012.5C,00002195
2014-11-25 12:53:22 r, 00.00m,0000562596Hz,0000000000c,0000000.000s, 012.8C,00002195
2014-11-25 13:03:22 r, 00.00m,0000562534Hz,0000000000c,0000000.000s, 012.8C,00002195
2014-11-25 13:13:22 r, 00.00m,0000562370Hz,0000000000c,0000000.000s, 012.5C,00002195
2014-11-25 13:23:22 r, 00.00m,0000562335Hz,0000000000c,0000000.000s, 012.2C,00002195
2014-11-25 13:33:22 r, 00.00m,0000562304Hz,0000000000c,0000000.000s, 012.2C,00002195
2014-11-25 13:43:22 r, 00.00m,0000562231Hz,0000000000c,0000000.000s, 011.9C,00002195
2014-11-25 13:53:22 r, 00.00m,0000562296Hz,0000000000c,0000000.000s, 011.9C,00002195
2014-11-25 14:03:22 r, 00.00m,0000562173Hz,0000000000c,0000000.000s, 011.6C,00002195
2014-11-25 14:13:22 r, 00.00m,0000562063Hz,0000000000c,0000000.000s, 011.2C,00002195
2014-11-25 14:23:22 r, 00.00m,0000562080Hz,0000000000c,0000000.000s, 010.9C,00002195
2014-11-25 14:33:22 r, 00.00m,0000562125Hz,0000000000c,0000000.000s, 010.9C,00002195
2014-11-25 14:43:22 r, 00.00m,0000562094Hz,0000000000c,0000000.000s, 010.6C,00002195
2014-11-25 14:53:22 r, 00.00m,0000562071Hz,0000000000c,0000000.000s, 010.6C,00002195
2014-11-25 15:03:22 r, 00.00m,0000562054Hz,0000000000c,0000000.000s, 010.3C,00002195
2014-11-25 15:13:22 r, 00.00m,0000561925Hz,0000000000c,0000000.000s, 009.6C,00002195
2014-11-25 15:23:22 r, 00.00m,0000561756Hz,0000000000c,0000000.000s, 009.3C,00002195
2014-11-25 15:33:22 r, 00.00m,0000561819Hz,0000000000c,0000000.000s, 009.0C,00002195
2014-11-25 15:43:22 r, 00.00m,0000561805Hz,0000000000c,0000000.000s, 008.7C,00002195
2014-11-25 15:53:22 r, 00.00m,0000561716Hz,0000000000c,0000000.000s, 008.7C,00002195
2014-11-25 16:03:22 r, 00.00m,0000561667Hz,0000000000c,0000000.000s, 008.3C,00002195
2014-11-25 16:13:22 r, 05.91m,0000383300Hz,0000000000c,0000000.000s, 008.0C,00002195
2014-11-25 16:23:22 r, 06.60m,0000204780Hz,0000000000c,0000000.000s, 007.7C,00002195
2014-11-25 16:33:22 r, 07.39m,0000098165Hz,0000000000c,0000000.000s, 007.4C,00002195
2014-11-25 16:43:22 r, 08.49m,0000035844Hz,0000000000c,0000000.000s, 007.0C,00002195
2014-11-25 16:53:22 r, 09.89m,0000009873Hz,0000000000c,0000000.000s, 006.7C,00002195
2014-11-25 17:03:22 r, 11.64m,0000001965Hz,0000000000c,0000000.000s, 006.7C,00002195
2014-11-25 17:13:22 r, 13.34m,0000000412Hz,0000000000c,0000000.000s, 006.7C,00002195
2014-11-25 17:23:22 r, 14.12m,0000000199Hz,0000000000c,0000000.000s, 006.7C,00002195
2014-11-25 17:33:22 r, 14.40m,0000000155Hz,0000000000c,0000000.000s, 006.7C,00002195
2014-11-25 17:43:22 r, 14.68m,0000000119Hz,0000003881c,0000000.008s, 006.7C,00002195
2014-11-25 17:53:22 r, 14.74m,0000000111Hz,0000004102c,0000000.009s, 006.7C,00002195
2014-11-25 18:03:22 r, 14.50m,0000000141Hz,0000000000c,0000000.000s, 006.4C,00002195
2014-11-25 18:13:22 r, 14.81m,0000000104Hz,0000004383c,0000000.010s, 006.4C,00002195
2014-11-25 18:23:22 r, 14.63m,0000000123Hz,0000003705c,0000000.008s, 006.4C,00002195
2014-11-25 18:33:22 r, 14.62m,0000000125Hz,0000003660c,0000000.008s, 006.1C,00002195
2014-11-25 18:43:22 r, 14.68m,0000000119Hz,0000003883c,0000000.008s, 006.1C,00002195
2014-11-25 18:53:22 r, 14.96m,0000000091Hz,0000005041c,0000000.011s, 006.1C,00002195
2014-11-25 19:03:22 r, 14.80m,0000000106Hz,0000004331c,0000000.009s, 006.1C,00002195
2014-11-25 19:13:22 r, 14.98m,0000000090Hz,0000005138c,0000000.011s, 005.8C,00002195
2014-11-25 19:23:22 r, 15.50m,0000000056Hz,0000008205c,0000000.018s, 006.1C,00002195
2014-11-25 19:33:22 r, 15.59m,0000000051Hz,0000009023c,0000000.020s, 005.8C,00002195
2014-11-25 19:43:22 r, 15.69m,0000000046Hz,0000009867c,0000000.021s, 005.8C,00002195
2014-11-25 19:53:22 r, 16.00m,0000000036Hz,0000013110c,0000000.028s, 005.4C,00002195
2014-11-25 20:03:22 r, 15.98m,0000000035Hz,0000012863c,0000000.028s, 005.4C,00002195
2014-11-25 20:13:22 r, 15.54m,0000000054Hz,0000008637c,0000000.019s, 005.1C,00002195
2014-11-25 20:23:22 r, 15.57m,0000000052Hz,0000008827c,0000000.019s, 005.1C,00002195
2014-11-25 20:33:22 r, 15.80m,0000000042Hz,0000010886c,0000000.024s, 005.1C,00002195
2014-11-25 20:43:22 r, 15.76m,0000000044Hz,0000010525c,0000000.023s, 004.8C,00002195
2014-11-25 20:53:22 r, 15.83m,0000000042Hz,0000011202c,0000000.024s, 004.8C,00002195
2014-11-25 21:03:22 r, 16.19m,0000000030Hz,0000015614c,0000000.034s, 004.8C,00002195
2014-11-25 21:13:22 r, 16.68m,0000000019Hz,0000024367c,0000000.053s, 004.5C,00002195
2014-11-25 21:23:22 r, 16.96m,0000000015Hz,0000031637c,0000000.069s, 004.1C,00002195
2014-11-25 21:33:22 r, 16.81m,0000000017Hz,0000027588c,0000000.060s, 004.1C,00002195
2014-11-25 21:43:22 r, 16.86m,0000000016Hz,0000028771c,0000000.062s, 003.8C,00002195
2014-11-25 21:53:22 r, 17.35m,0000000010Hz,0000045264c,0000000.098s, 003.5C,00002195
2014-11-25 22:03:22 r, 17.59m,0000000008Hz,0000056351c,0000000.122s, 003.5C,00002195
2014-11-25 22:13:22 r, 17.58m,0000000008Hz,0000055895c,0000000.121s, 003.2C,00002195
2014-11-25 22:23:22 r, 17.58m,0000000008Hz,0000056316c,0000000.122s, 002.9C,00002195
2014-11-25 22:33:22 r, 17.60m,0000000008Hz,0000057128c,0000000.124s, 002.5C,00002195
2014-11-25 22:43:22 r, 17.60m,0000000008Hz,0000056765c,0000000.123s, 002.2C,00002195
2014-11-25 22:53:22 r, 17.62m,0000000008Hz,0000057504c,0000000.125s, 001.9C,00002195
2014-11-25 23:03:22 r, 17.62m,0000000008Hz,0000057805c,0000000.125s, 001.6C,00002195
2014-11-25 23:13:22 r, 17.63m,0000000008Hz,0000058355c,0000000.127s, 001.2C,00002195
2014-11-25 23:23:22 r, 17.63m,0000000008Hz,0000057906c,0000000.126s, 000.9C,00002195
2014-11-25 23:33:22 r, 17.64m,0000000008Hz,0000058658c,0000000.127s, 000.6C,00002195
2014-11-25 23:43:22 r, 17.63m,0000000008Hz,0000058747c,0000000.127s, 000.3C,00002195
2014-11-25 23:53:22 r, 17.63m,0000000008Hz,0000058585c,0000000.127s, 000.1C,00002195
